C/2020 F2 ( ATLAS )

Japanese version
Home page
Updated on July 24, 2022

---------------------------------------------------------------------

* Profile

Discovery Date March 21 and 22, 2020
Magnitude 19.3 mag and 19.3 mag
Discoverer Asteroid Terrestrial-Impact Last Alert System (ATLAS) search program, Pan-STARRS 1 telescope (Haleakala)

* Pictures

* Orbital Elements

Epoch 2022 Jan. 21.0 TT = JDT 2459600.5
T 2022 July 15.99947 TT                                 Rudenko
q   8.8170815            (2000.0)            P               Q
z  -0.0005199      Peri.   48.36285     -0.89914178     -0.34752152
 +/-0.0000020      Node   250.26481     -0.43570174     +0.76817266
e   1.0045838      Incl.  163.58261     +0.04132851     +0.53771699
From 757 observations 2019 May 27-2022 Jan. 31, mean residual 0".4.

* Finding Charts

* Magnitudes Graph

        m1 = -6.5 + 5 log d + 20.0 log r

---------------------------------------------------------------------

The orbital elements are published on M.P.E.C. 2022-C56.
The charts are made with StellaNavigator Ver.10 (AstroArts).
The magnitudes graphs are made with Comet for Windows.

---------------------------------------------------------------------

Copyright(C) Seiichi Yoshida (comet@aerith.net). All rights reserved.